Preview of NWS' New Version of Forecast
This preview is not operational and should not be used for support decisions.

Regional Weather Roundup (RWR)

Issued by National Weather Service (NWS)

                            
000
ASUS45 KABQ 252301
RWRNM 
NEW MEXICO REGIONAL WEATHER ROUNDUP
NATIONAL WEATHER SERVICE ALBUQUERQUE NM
500 PM MDT SUN AUG 25 2019

NOTE: "FAIR" MEANS FEW OR NO CLOUDS BELOW 12,000 FEET AGL WITH NO
       SIGNIFICANT WEATHER OR OBSTRUCTIONS TO VISION.

      THIS PRODUCT IS RELEASED AS TWO VERSIONS.  ONE VERSION NEAR
      THE TOP OF THE HOUR CONTAINING PRELIMINARY DATA FROM ALBUQUERQUE
      AND OTHER STATIONS.  A FINAL VERSION WITH ADDITIONAL DATA IS 
      ISSUED ABOUT 10 MINUTES AFTER THE HOUR.
 
NMZ501-503-504-510>518-260000-
NORTHWEST PLATEAU/NORTHCENTRAL MOUNTAINS
  
CITY           SKY/WX    TMP DP  RH WIND       PRES   REMARKS
FARMINGTON     FAIR      95  29   9 NW14G22   30.04F                  
LOS ALAMOS       N/A     89  28  11 NW5       30.17S                  
SANTA FE       FAIR      94  29  10 W13G21    30.07F                  
TAOS           FAIR      92  32  12 W20G25    30.14S                  
ANGEL FIRE     FAIR      80  30  16 SW6       30.27F                  

$$
NMZ402-403-502-505>509-260000-
WESTCENTRAL MOUNTAINS/SOUTHWEST MOUNTAINS
  
CITY           SKY/WX    TMP DP  RH WIND       PRES   REMARKS
GALLUP         FAIR      92  27   9 NW8G20    30.16F                  
GRANTS         FAIR      91  30  11 W6G18     30.17S                  
SILVER CITY    FAIR      93  48  21 W13G22    30.09F                  

$$
NMZ407-409-411-412-260000-
SOUTHERN DESERTS
  
CITY           SKY/WX    TMP DP  RH WIND       PRES   REMARKS
DEMING         FAIR      98  45  16 W14G23    29.98F                  
LAS CRUCES     FAIR     100  38  11 W7G17     29.99S HX  95           
HOLLOMAN AFB   FAIR     100  38  12 NW10      29.95F HX  95           
ALAMOGORDO     FAIR     100  36  10 W12       29.95F HX  95           
T OR C         FAIR      99  35  10 MISG      29.98F                  

$$
NMZ519>523-260000-
CENTRAL VALLEYS/CENTRAL HIGHLANDS
  
CITY           SKY/WX    TMP DP  RH WIND       PRES   REMARKS
ALBUQUERQUE    FAIR      95  35  12 SW12G18   30.02F                  
DOUBLE EAGLE   MOSUNNY   95  34  11 VRB3      30.06F                  
CLINES CORNERS FAIR      90  28  11 NW14G26   30.17F                  
BELEN          FAIR      98  31   9 SW10G17   30.01F                  
SOCORRO        FAIR     100  32   9 N8        29.99S                  

$$
NMZ524>526-539-540-260000-
SOUTHCENTRAL MOUNTAINS
  
CITY           SKY/WX    TMP DP  RH WIND       PRES   REMARKS
RUIDOSO        FAIR      86  34  15 NW9G24    30.19S                  

$$
NMZ527>531-260000-
NORTHEAST HIGHLANDS/NORTHEAST PLAINS
  
CITY           SKY/WX    TMP DP  RH WIND       PRES   REMARKS
LAS VEGAS      FAIR      92  28  10 S12G21    30.09F                  
RATON          FAIR      96  28   9 W15G21    30.01F                  
CLAYTON        FAIR      93  48  21 SE13      29.92F                  

$$
NMZ532>537-260000-
EASTCENTRAL PLAINS
  
CITY           SKY/WX    TMP DP  RH WIND       PRES   REMARKS
SANTA ROSA     FAIR     101  40  12 S3        29.91S HX  96           
TUCUMCARI      FAIR     102  42  13 S8        29.83F HX  97           
CANNON AFB     FAIR      98  44  15 CALM      29.91F                  
CLOVIS AIRPORT FAIR      96  45  17 CALM      29.91S                  

$$
NMZ028-029-538-260000-
SOUTHEAST PLAINS
  
CITY           SKY/WX    TMP DP  RH WIND       PRES   REMARKS
ROSWELL        FAIR     108  34   8 NW9G21    29.83F HX 101           
ARTESIA        FAIR     106  41  11 CALM      29.83F HX 100           
CARLSBAD       PTSUNNY  106  39  10 N3        29.79F HX 100           
HOBBS          SUNNY    106  28   6 W10G17    29.83F HX  98           


$$